Location: Hebron
(33.0265°N, 96.8636°W)
Time: 01:12:29
(UTC+00:00)

Cosmos 1812 - Pass Details

Date: 04 July 2022
Orbit: 508 x 515 km, 82.5° (Epoch: 16 August)

Event Time Altitude Azimuth Distance (km) Brightness Sun altitude
Rises 07:49:10 0° 353° (N) 2,632 7.2 -31.1°
Reaches altitude 10° 07:51:18 10° 353° (N) 1,740 6.1 -31.0°
Enters shadow 07:52:27 19° 353° (N) 1,270 5.2 -30.9°
